Location: *
(6.1770°N, 170.5260°W)
Time: 00:40:13
(UTC+00:00)

Daily predictions for brighter satellites

Satellite Brightness Start Highest point End
(mag) Time Altitude Azimuth Time Altitude Azimuth Time Altitude Azimuth
ATLAS 2A CENTAUR R/B 3.4 05:53:07 10° NW 05:57:23 46° NE 06:11:11 10° ESE
Meteor 2-10 4.2 05:54:29 10° N 06:00:02 71° E 06:05:25 10° SSE
Cosmos 2297 3.8 05:56:12 10° S 06:01:46 56° ESE 06:07:17 10° NNE
ARIANE 5 R/B 3.1 05:58:09 10° WSW 06:02:13 22° SSW 06:04:07 10° SE
SL-24 R/B - RUBIN 2 3.5 06:04:58 10° NNW 06:09:30 84° ENE 06:13:44 10° SSE
FENGYUN 3A 4.1 06:05:28 10° SSE 06:10:33 42° ENE 06:15:37 10° N
CZ-3A R/B 4.3 05:53:06 10° W 06:11:34 31° NW 06:15:59 10° NNE
ATLAS 3B R/B 4.1 06:06:09 10° SW 06:13:23 49° WNW 06:20:33 10° N
Cosmos 1400 Rocket 3.9 06:12:33 10° SSE 06:16:02 26° E 06:19:27 10° NE
NOAA 12 4.1 06:13:21 10° SSE 06:18:40 79° ENE 06:23:59 10° N
H-2A R/B 2.7 06:05:43 10° WNW 06:23:31 72° SW 06:26:28 15° SE
OAO 3 Copernicus 4.3 06:21:38 10° SW 06:26:40 87° SE 06:31:42 10° NE
Cosmos 1725 Rocket 4.0 06:20:36 10° N 06:26:46 88° E 06:32:59 10° S
Cosmos 2228 Rocket 4.2 06:27:11 10° NNW 06:31:25 46° W 06:35:38 10° SSW
Cosmos 1898 Rocket 3.8 06:31:11 10° S 06:36:05 43° ESE 06:41:02 10° NNE
Meteor 1-27 4.2 06:34:21 10° N 06:39:55 85° W 06:45:28 10° S
Resurs 01 Rocket 2.7 06:40:37 23° E 06:41:42 25° ENE 06:45:17 10° NNE
Cosmos 1315 Rocket 3.7 06:42:24 26° E 06:42:34 26° E 06:45:54 10° NE
Milstar 3 Cent rocket 3.4 06:39:16 10° W 06:43:40 32° SSW 06:48:20 15° SSE
GPS 2-14 Rocket1 3.3 06:40:02 10° NW 06:43:59 48° NNE 06:46:02 25° E
ALOS 2.8 06:42:09 10° S 06:46:45 59° WSW 06:51:21 10° NNW
NOSS 3-2 (A) 3.5 06:41:24 10° SSW 06:47:11 74° WNW 06:53:05 10° NNE
Cosmos 2233 Rocket 3.9 06:41:07 10° N 06:47:14 77° E 06:53:25 10° S
Spelda 4.2 06:37:35 10° W 06:47:32 57° N 06:49:16 24° ENE
Cosmos 1633 Rocket 2.9 06:44:34 10° S 06:48:56 83° E 06:53:18 10° N
COSMOS 2455 3.6 06:44:08 10° SSE 06:49:07 27° ESE 06:54:05 10° NE
Delta 7925 Rocket 3.5 06:48:09 10° WSW 06:52:51 73° NNW 06:57:48 13° ENE
Abrixas 2.9 06:51:56 10° NNW 06:54:06 40° NNE 06:54:06 40° NNE
Cosmos 1666 Rocket 4.1 06:50:43 10° SSW 06:55:06 60° W 06:59:24 10° N
Cosmos 1707 Rocket 4.1 06:53:56 10° NNE 06:57:58 36° E 06:58:00 36° E
Delta 198 4.0 06:54:22 10° NW 06:58:22 39° NNE 06:59:21 33° ENE
Cosmos 1455 2.1 06:55:45 10° N 06:59:29 79° W 07:01:34 25° S
HJ-1C 3.7 06:58:22 24° S 07:00:14 64° W 07:03:37 10° NNW
H-2A R/B 3.0 06:58:06 19° S 07:00:51 70° W 07:04:45 10° NNW
Cosmos 773 Rocket 4.4 06:57:44 10° N 07:02:43 43° ENE 07:03:43 39° ESE
Cosmos 1933 Rocket 3.8 07:04:34 43° E 07:04:34 43° E 07:08:21 10° NNE
NOSS 3-2 (C) 3.5 06:58:52 10° SSW 07:04:39 74° WNW 07:10:34 10° NNE
Sich 1 4.2 07:00:38 10° SSW 07:04:40 42° W 07:08:44 10° NNW
COSMOS 2406 3.8 07:03:20 10° NNW 07:08:55 57° WSW 07:13:40 15° S
Cosmos 2298 Rocket 3.9 07:05:20 10° S 07:10:39 81° ESE 07:15:56 10° NNE
Cosmos 2150 Rocket 3.9 07:06:23 10° S 07:11:49 71° ESE 07:17:11 10° NNE
Ariane H10+ 1.4 07:04:58 10° W 07:13:12 73° S 07:13:35 66° SE
SJ-6B 4.3 07:11:03 13° SSW 07:13:58 32° W 07:17:18 10° NW
CZ-2D R/B 3.1 07:15:44 85° SSE 07:15:51 90° SSE 07:19:43 10° N
Cosmos 1816 Rocket 4.5 07:15:57 37° SSE 07:18:12 56° E 07:24:15 10° NNE
Cosmos 1937 Rocket 3.4 07:15:56 10° SSW 07:21:05 84° W 07:26:13 10° N
Resurs 1-3 3.4 07:24:05 88° SSE 07:24:08 89° E 07:28:30 10° NNW
ISS -1.8 07:25:24 10° WSW 07:28:14 28° NW 07:28:36 27° NW
Ariane H10 4.2 07:29:26 10° WSW 07:33:43 25° SW 07:33:43 25° SW
Cosmos 1869 4.3 07:34:42 10° NNW 07:37:51 44° WNW 07:37:51 44° WNW
Cosmos 1513 Rocket 4.3 07:33:24 10° N 07:39:20 73° ENE 07:39:20 73° ENE
Ariane 5 R/B 3.8 07:32:24 10° W 07:43:45 89° N 07:43:59 83° E
Helios 1B rocket 3.6 07:40:13 10° N 07:43:54 41° WNW 07:43:54 41° WNW
Cosmos 2082 Rocket 3.8 07:42:08 10° N 07:44:25 22° NNE 07:44:25 22° NNE
Spot 2 Rocket 4.2 07:50:18 47° WSW 07:50:41 48° WSW 07:55:33 10° NNW
CZ-3B DEB 3.6 07:51:33 10° NW 08:02:18 78° WSW 08:04:41 59° S
Cosmos 1833 Rocket 4.4 08:01:11 10° N 08:03:20 23° N 08:03:20 23° N
Resurs 01 Rocket 4.4 08:18:11 14° W 08:18:11 14° W 08:20:12 10° WNW
Cosmos 2369 Rocket 4.2 08:28:50 21° NNW 08:28:50 21° NNW 08:30:49 10° N
ARIANE 5 R/B 4.1 08:13:45 10° W 08:31:01 37° SW 08:31:01 37° SW
